User: anonymous   Login
Location: Appeville
(49.3218°N, 1.3427°W)
Time: 08:59:46
(UTC+00:00)
Language:

STARLINK-1013 - Orbit

View from above orbital plane
View from above orbital plane
View from above satellite
View from above satellite

Ground track
Ground track

The orbit data is extracted from the following two-line orbital elements,

1 44719U 19074G   20050.25001157 -.00075842  00000-0 -88872-3 0  9998
2 44719  53.0075  35.3086 0001010  77.3719  90.9396 15.61003421 15698
Epoch (UTC): 19 February 2020 06:00:01
Eccentricity: 0.0001010
inclination: 53.0075°
perigee height: 384 km
apogee height: 385 km
right ascension of ascending node: 35.3086°
argument of perigee: 77.3719°
revolutions per day: 15.61003421
mean anomaly at epoch: 90.9396°
orbit number at epoch: 1569

The dashed part of the orbit path shows where the satellite is in the earth's shadow,  

DLR